User: anonymous   Login
Location: Sawmill Trailhead
(33.5800°N, 116.4497°W)
Time: 02:59:25
(UTC-07:00)
Language:

Uosat F - Orbit

View from above orbital plane
View from above orbital plane
View from above satellite
View from above satellite

Ground track
Ground track

The orbit data is extracted from the following two-line orbital elements,

1 21575U 91050B   15140.84770544  .00000211  00000-0  80583-4 0  9997
2 21575 098.7376 128.3998 0008112 044.0736 017.5662 14.40627887252090
Epoch (UTC): 20 May 2015 20:20:41
Eccentricity: 0.0008112
inclination: 98.7376°
perigee height: 750 km
apogee height: 762 km
right ascension of ascending node: 128.3998°
argument of perigee: 44.0736°
revolutions per day: 14.40627887
mean anomaly at epoch: 17.5662°
orbit number at epoch: 25209

The dashed part of the orbit path shows where the satellite is in the earth's shadow,  

DLR